LBSF

Sofia Airport

Airport
ICAO code
LBSF
IATA Code
SOF
Summary
ICAO Region
EUR
ICAO Territory
Location

Sofia, Sofia-Capital

Serving
Sofia
Elevation
1742 ft
Coordinates
42° 41' 44" N , 23° 24' 57" E
KCC
Airport RE
Aquaplaning
Airport WX
Cumulonimbus
Metar
Observation
LBSF 291900Z 10008KT 9999 SCT021 OVC043 03/01 Q1019 NOSIG
Station
Sofia Observ.
Date/Time
2022-11-29 19:00:00
Wind direction
100°
Wind speed
08 kts
Lowest cloud amount
scattered clouds
Temperature
3°C
Dew point
1°C
Humidity
86%
QNH
1019 hPa
Weather condition
n/a

International airport serving the capital of Bulgaria.

Climatology

Humid “subtropical” climate (Köppen climate classification Cfa)

Runways

Designator Length Width Surface Rops
9/27 2800 45 ASP Yes/Yes

Airport map

Aerial View

SKYbrary Partners:

Safety knowledge contributed by: